Year,Month,Day,Hour,Minute,Value (Times are PST for temperature in C)
2010,05,21,00,00,7.20
2010,05,21,00,01,7.20
2010,05,21,00,02,7.20
2010,05,21,00,03,7.20
2010,05,21,00,04,7.20
2010,05,21,00,05,7.20
2010,05,21,00,06,7.20
2010,05,21,00,07,7.20
2010,05,21,00,08,7.20
2010,05,21,00,09,7.20
2010,05,21,00,10,7.20
2010,05,21,00,11,7.20
2010,05,21,00,12,7.20
2010,05,21,00,13,7.20
2010,05,21,00,14,7.20
2010,05,21,00,15,7.20
2010,05,21,00,16,7.20
2010,05,21,00,17,7.20
2010,05,21,00,18,7.30
2010,05,21,00,19,7.30
2010,05,21,00,20,7.30
2010,05,21,00,21,7.30
2010,05,21,00,22,7.30
2010,05,21,00,23,7.30
2010,05,21,00,24,7.30
2010,05,21,00,25,7.20
2010,05,21,00,26,7.20
2010,05,21,00,27,7.20
2010,05,21,00,28,7.20
2010,05,21,00,29,7.20
2010,05,21,00,30,7.20
2010,05,21,00,31,7.20
2010,05,21,00,32,7.20
2010,05,21,00,33,7.20
2010,05,21,00,34,7.30
2010,05,21,00,35,7.30
2010,05,21,00,36,7.30
2010,05,21,00,37,7.30
2010,05,21,00,38,7.30
2010,05,21,00,39,7.20
2010,05,21,00,40,7.20
2010,05,21,00,41,7.20
2010,05,21,00,42,7.20
2010,05,21,00,43,7.20
2010,05,21,00,44,7.20
2010,05,21,00,45,7.20
2010,05,21,00,46,7.20
2010,05,21,00,47,7.30
2010,05,21,00,48,7.30
2010,05,21,00,49,7.30
2010,05,21,00,50,7.20
2010,05,21,00,51,7.30
2010,05,21,00,52,7.30
2010,05,21,00,53,7.30
2010,05,21,00,54,7.30
2010,05,21,00,55,7.30
2010,05,21,00,56,7.30
2010,05,21,00,57,7.30
2010,05,21,00,58,7.30
2010,05,21,00,59,7.30
2010,05,21,01,00,7.30
2010,05,21,01,01,7.30
2010,05,21,01,02,7.30
2010,05,21,01,03,7.30
2010,05,21,01,04,7.30
2010,05,21,01,05,7.30
2010,05,21,01,06,7.30
2010,05,21,01,07,7.30
2010,05,21,01,08,7.30
2010,05,21,01,09,7.30
2010,05,21,01,10,7.30
2010,05,21,01,11,7.30
2010,05,21,01,12,7.30
2010,05,21,01,13,7.30
2010,05,21,01,14,7.30
2010,05,21,01,15,7.30
2010,05,21,01,16,7.30
2010,05,21,01,17,7.30
2010,05,21,01,18,7.30
2010,05,21,01,19,7.30
2010,05,21,01,20,7.30
2010,05,21,01,21,7.20
2010,05,21,01,22,7.30
2010,05,21,01,23,7.20
2010,05,21,01,24,7.20
2010,05,21,01,25,7.20
2010,05,21,01,26,7.20
2010,05,21,01,27,7.20
2010,05,21,01,28,7.20
2010,05,21,01,29,7.20
2010,05,21,01,30,7.20
2010,05,21,01,31,7.20
2010,05,21,01,32,7.20
2010,05,21,01,33,7.20
2010,05,21,01,34,7.20
2010,05,21,01,35,7.20
2010,05,21,01,36,7.20
2010,05,21,01,37,7.20
2010,05,21,01,38,7.20
2010,05,21,01,39,7.20
2010,05,21,01,40,7.20
2010,05,21,01,41,7.20
2010,05,21,01,42,7.20
2010,05,21,01,43,7.20
2010,05,21,01,44,7.20
2010,05,21,01,49,7.20
2010,05,21,01,50,7.20
2010,05,21,01,51,7.20
2010,05,21,01,52,7.20
2010,05,21,01,53,7.20
2010,05,21,01,54,7.20
2010,05,21,01,55,7.20
2010,05,21,01,56,7.20
2010,05,21,01,57,7.20
2010,05,21,01,58,7.20
2010,05,21,01,59,7.20
2010,05,21,02,00,7.20
2010,05,21,02,01,7.20
2010,05,21,02,02,7.20
2010,05,21,02,03,7.20
2010,05,21,02,04,7.20
2010,05,21,02,05,7.10
2010,05,21,02,06,7.10
2010,05,21,02,07,7.10
2010,05,21,02,08,7.10
2010,05,21,02,09,7.10
2010,05,21,02,10,7.10
2010,05,21,02,11,7.10
2010,05,21,02,12,7.10
2010,05,21,02,13,7.10
2010,05,21,02,14,7.00
2010,05,21,02,15,7.00
2010,05,21,02,16,7.00
2010,05,21,02,17,6.90
2010,05,21,02,18,6.90
2010,05,21,02,19,6.90
2010,05,21,02,20,6.90
2010,05,21,02,21,6.90
2010,05,21,02,22,6.90
2010,05,21,02,23,6.90
2010,05,21,02,24,6.80
2010,05,21,02,25,6.90
2010,05,21,02,26,6.80
2010,05,21,02,27,6.80
2010,05,21,02,28,6.80
2010,05,21,02,29,6.80
2010,05,21,02,30,6.80
2010,05,21,02,31,6.80
2010,05,21,02,32,6.80
2010,05,21,02,33,6.80
2010,05,21,02,34,6.80
2010,05,21,02,35,6.80
2010,05,21,02,36,6.80
2010,05,21,02,37,6.80
2010,05,21,02,38,6.80
2010,05,21,02,39,6.80
2010,05,21,02,40,6.80
2010,05,21,02,41,6.80
2010,05,21,02,42,6.80
2010,05,21,02,43,6.80
2010,05,21,02,44,6.80
2010,05,21,02,45,6.70
2010,05,21,02,46,6.70
2010,05,21,02,47,6.70
2010,05,21,02,48,6.70
2010,05,21,02,49,6.70
2010,05,21,02,50,6.70
2010,05,21,02,51,6.70
2010,05,21,02,52,6.70
2010,05,21,02,53,6.70
2010,05,21,02,54,6.70
2010,05,21,02,55,6.70
2010,05,21,02,56,6.70
2010,05,21,02,57,6.70
2010,05,21,02,58,6.70
2010,05,21,02,59,6.70
2010,05,21,03,00,6.60
2010,05,21,03,01,6.60
2010,05,21,03,02,6.60
2010,05,21,03,03,6.60
2010,05,21,03,04,6.60
2010,05,21,03,05,6.60
2010,05,21,03,06,6.60
2010,05,21,03,07,6.70
2010,05,21,03,08,6.70
2010,05,21,03,09,6.70
2010,05,21,03,10,6.70
2010,05,21,03,11,6.70
2010,05,21,03,12,6.70
2010,05,21,03,13,6.70
2010,05,21,03,14,6.70
2010,05,21,03,15,6.70
2010,05,21,03,16,6.70
2010,05,21,03,17,6.70
2010,05,21,03,18,6.70
2010,05,21,03,19,6.70
2010,05,21,03,20,6.70
2010,05,21,03,21,6.70
2010,05,21,03,22,6.70
2010,05,21,03,23,6.70
2010,05,21,03,24,6.70
2010,05,21,03,25,6.70
2010,05,21,03,26,6.70
2010,05,21,03,27,6.70
2010,05,21,03,28,6.70
2010,05,21,03,29,6.70
2010,05,21,03,30,6.70
2010,05,21,03,31,6.70
2010,05,21,03,32,6.70
2010,05,21,03,33,6.70
2010,05,21,03,34,6.70
2010,05,21,03,35,6.70
2010,05,21,03,36,6.70
2010,05,21,03,37,6.70
2010,05,21,03,38,6.70
2010,05,21,03,39,6.70
2010,05,21,03,40,6.70
2010,05,21,03,41,6.60
2010,05,21,03,42,6.60
2010,05,21,03,43,6.60
2010,05,21,03,44,6.60
2010,05,21,03,45,6.60
2010,05,21,03,46,6.60
2010,05,21,03,47,6.50
2010,05,21,03,48,6.50
2010,05,21,03,49,6.50
2010,05,21,03,50,6.50
2010,05,21,03,51,6.40
2010,05,21,03,52,6.40
2010,05,21,03,53,6.40
2010,05,21,03,54,6.40
2010,05,21,03,55,6.30
2010,05,21,03,56,6.30
2010,05,21,03,57,6.30
2010,05,21,03,58,6.30
2010,05,21,03,59,6.30
2010,05,21,04,00,6.30
2010,05,21,04,01,6.30
2010,05,21,04,02,6.30
2010,05,21,04,03,6.30
2010,05,21,04,04,6.30
2010,05,21,04,05,6.30
2010,05,21,04,06,6.30
2010,05,21,04,07,6.20
2010,05,21,04,08,6.20
2010,05,21,04,09,6.20
2010,05,21,04,10,6.20
2010,05,21,04,11,6.20
2010,05,21,04,12,6.20
2010,05,21,04,13,6.20
2010,05,21,04,14,6.20
2010,05,21,04,15,6.20
2010,05,21,04,16,6.20
2010,05,21,04,17,6.10
2010,05,21,04,18,6.10
2010,05,21,04,19,6.10
2010,05,21,04,20,6.10
2010,05,21,04,21,6.10
2010,05,21,04,22,6.10
2010,05,21,04,23,6.10
2010,05,21,04,24,6.10
2010,05,21,04,25,6.10
2010,05,21,04,26,6.10
2010,05,21,04,27,6.10
2010,05,21,04,28,6.10
2010,05,21,04,29,6.10
2010,05,21,04,30,6.10
2010,05,21,04,31,6.10
2010,05,21,04,32,6.10
2010,05,21,04,33,6.10
2010,05,21,04,34,6.10
2010,05,21,04,35,6.10
2010,05,21,04,36,6.10
2010,05,21,04,37,6.10
2010,05,21,04,38,6.10
2010,05,21,04,39,6.10
2010,05,21,04,40,6.10
2010,05,21,04,41,6.10
2010,05,21,04,42,6.10
2010,05,21,04,43,6.10
2010,05,21,04,44,6.10
2010,05,21,04,45,6.10
2010,05,21,04,46,6.00
2010,05,21,04,47,6.00
2010,05,21,04,48,6.00
2010,05,21,04,49,6.10
2010,05,21,04,50,6.10
2010,05,21,04,51,6.10
2010,05,21,04,52,6.10
2010,05,21,04,53,6.10
2010,05,21,04,54,6.10
2010,05,21,04,55,6.10
2010,05,21,04,56,6.10
2010,05,21,04,57,6.10
2010,05,21,04,58,6.10
2010,05,21,04,59,6.10
2010,05,21,05,00,6.10
2010,05,21,05,01,6.10
2010,05,21,05,02,6.10
2010,05,21,05,03,6.10
2010,05,21,05,04,6.10
2010,05,21,05,05,6.10
2010,05,21,05,06,6.10
2010,05,21,05,07,6.10
2010,05,21,05,08,6.10
2010,05,21,05,09,6.10
2010,05,21,05,10,6.00
2010,05,21,05,11,6.00
2010,05,21,05,12,6.00
2010,05,21,05,13,6.00
2010,05,21,05,14,5.90
2010,05,21,05,15,5.90
2010,05,21,05,16,5.90
2010,05,21,05,17,5.90
2010,05,21,05,18,5.90
2010,05,21,05,19,5.90
2010,05,21,05,20,5.90
2010,05,21,05,21,5.90
2010,05,21,05,22,5.90
2010,05,21,05,23,5.90
2010,05,21,05,24,5.90
2010,05,21,05,25,5.90
2010,05,21,05,26,6.00
2010,05,21,05,27,6.00
2010,05,21,05,28,6.00
2010,05,21,05,29,6.10
2010,05,21,05,30,6.10
2010,05,21,05,31,6.10
2010,05,21,05,32,6.20
2010,05,21,05,33,6.20
2010,05,21,05,34,6.20
2010,05,21,05,35,6.30
2010,05,21,05,36,6.30
2010,05,21,05,37,6.30
2010,05,21,05,38,6.30
2010,05,21,05,39,6.40
2010,05,21,05,40,6.40
2010,05,21,05,41,6.40
2010,05,21,05,42,6.40
2010,05,21,05,43,6.40
2010,05,21,05,44,6.40
2010,05,21,05,45,6.40
2010,05,21,05,46,6.40
2010,05,21,05,47,6.40
2010,05,21,05,48,6.40
2010,05,21,05,49,6.40
2010,05,21,05,50,6.30
2010,05,21,05,51,6.30
2010,05,21,05,52,6.30
2010,05,21,05,53,6.30
2010,05,21,05,54,6.30
2010,05,21,05,55,6.30
2010,05,21,05,56,6.30
2010,05,21,05,57,6.30
2010,05,21,05,58,6.30
2010,05,21,05,59,6.30
2010,05,21,06,00,6.20
2010,05,21,06,01,6.20
2010,05,21,06,02,6.20
2010,05,21,06,03,6.10
2010,05,21,06,04,6.10
2010,05,21,06,05,6.10
2010,05,21,06,06,6.10
2010,05,21,06,07,6.10
2010,05,21,06,08,6.10
2010,05,21,06,09,6.10
2010,05,21,06,10,6.10
2010,05,21,06,11,6.10
2010,05,21,06,12,6.10
2010,05,21,06,13,6.00
2010,05,21,06,14,6.00
2010,05,21,06,15,6.00
2010,05,21,06,16,6.00
2010,05,21,06,17,6.00
2010,05,21,06,18,6.00
2010,05,21,06,19,6.00
2010,05,21,06,20,6.00
2010,05,21,06,21,6.00
2010,05,21,06,22,6.00
2010,05,21,06,23,6.00
2010,05,21,06,24,6.00
2010,05,21,06,25,6.00
2010,05,21,06,26,6.00
2010,05,21,06,27,6.10
2010,05,21,06,28,6.10
2010,05,21,06,29,6.10
2010,05,21,06,30,6.10
2010,05,21,06,31,6.10
2010,05,21,06,32,6.10
2010,05,21,06,33,6.10
2010,05,21,06,34,6.10
2010,05,21,06,35,6.20
2010,05,21,06,36,6.20
2010,05,21,06,37,6.20
2010,05,21,06,38,6.20
2010,05,21,06,39,6.20
2010,05,21,06,40,6.20
2010,05,21,06,41,6.20
2010,05,21,06,42,6.20
2010,05,21,06,43,6.20
2010,05,21,06,44,6.20
2010,05,21,06,45,6.30
2010,05,21,06,46,6.30
2010,05,21,06,47,6.30
2010,05,21,06,48,6.30
2010,05,21,06,49,6.30
2010,05,21,06,50,6.30
2010,05,21,06,51,6.30
2010,05,21,06,52,6.30
2010,05,21,06,53,6.30
2010,05,21,06,54,6.30
2010,05,21,06,55,6.40
2010,05,21,06,56,6.40
2010,05,21,06,57,6.40
2010,05,21,06,58,6.40
2010,05,21,06,59,6.40
2010,05,21,07,00,6.40
2010,05,21,07,01,6.50
2010,05,21,07,02,6.50
2010,05,21,07,03,6.50
2010,05,21,07,04,6.50
2010,05,21,07,05,6.50
2010,05,21,07,06,6.50
2010,05,21,07,07,6.60
2010,05,21,07,08,6.60
2010,05,21,07,09,6.60
2010,05,21,07,10,6.60
2010,05,21,07,11,6.60
2010,05,21,07,12,6.60
2010,05,21,07,13,6.60
2010,05,21,07,14,6.60
2010,05,21,07,15,6.70
2010,05,21,07,16,6.70
2010,05,21,07,17,6.70
2010,05,21,07,18,6.70
2010,05,21,07,19,6.70
2010,05,21,07,20,6.70
2010,05,21,07,21,6.70
2010,05,21,07,22,6.70
2010,05,21,07,23,6.70
2010,05,21,07,24,6.70
2010,05,21,07,25,6.70
2010,05,21,07,26,6.70
2010,05,21,07,27,6.70
2010,05,21,07,28,6.70
2010,05,21,07,29,6.70
2010,05,21,07,30,6.80
2010,05,21,07,31,6.80
2010,05,21,07,32,6.80
2010,05,21,07,33,6.80
2010,05,21,07,34,6.80
2010,05,21,07,35,6.80
2010,05,21,07,36,6.80
2010,05,21,07,37,6.80
2010,05,21,07,38,6.80
2010,05,21,07,39,6.80
2010,05,21,07,40,6.80
2010,05,21,07,41,6.80
2010,05,21,07,42,6.90
2010,05,21,07,43,6.90
2010,05,21,07,44,6.90
2010,05,21,07,45,6.90
2010,05,21,07,46,6.90
2010,05,21,07,47,6.90
2010,05,21,07,48,6.90
2010,05,21,07,49,7.00
2010,05,21,07,50,7.00
2010,05,21,07,51,7.00
2010,05,21,07,52,7.00
2010,05,21,07,53,7.00
2010,05,21,07,54,7.10
2010,05,21,07,55,7.10
2010,05,21,07,56,7.10
2010,05,21,07,57,7.20
2010,05,21,07,58,7.20
2010,05,21,07,59,7.20
2010,05,21,08,00,7.20
2010,05,21,08,01,7.20
2010,05,21,08,02,7.20
2010,05,21,08,03,7.20
2010,05,21,08,04,7.20
2010,05,21,08,05,7.30
2010,05,21,08,06,7.30
2010,05,21,08,07,7.30
2010,05,21,08,08,7.30
2010,05,21,08,09,7.40
2010,05,21,08,10,7.40
2010,05,21,08,11,7.40
2010,05,21,08,12,7.40
2010,05,21,08,13,7.40
2010,05,21,08,14,7.50
2010,05,21,08,15,7.50
2010,05,21,08,16,7.50
2010,05,21,08,17,7.60
2010,05,21,08,18,7.60
2010,05,21,08,19,7.60
2010,05,21,08,20,7.60
2010,05,21,08,21,7.70
2010,05,21,08,22,7.70
2010,05,21,08,23,7.70
2010,05,21,08,24,7.80
2010,05,21,08,25,7.80
2010,05,21,08,26,7.80
2010,05,21,08,27,7.90
2010,05,21,08,28,8.00
2010,05,21,08,29,8.00
2010,05,21,08,30,8.10
2010,05,21,08,31,8.10
2010,05,21,08,32,8.20
2010,05,21,08,33,8.30
2010,05,21,08,34,8.30
2010,05,21,08,35,8.40
2010,05,21,08,36,8.40
2010,05,21,08,37,8.40
2010,05,21,08,38,8.40
2010,05,21,08,39,8.40
2010,05,21,08,40,8.40
2010,05,21,08,41,8.50
2010,05,21,08,42,8.50
2010,05,21,08,43,8.60
2010,05,21,08,44,8.60
2010,05,21,08,45,8.70
2010,05,21,08,46,8.60
2010,05,21,08,47,8.70
2010,05,21,08,48,8.70
2010,05,21,08,49,8.70
2010,05,21,08,50,8.70
2010,05,21,08,51,8.70
2010,05,21,08,52,8.70
2010,05,21,08,53,8.70
2010,05,21,08,54,8.80
2010,05,21,08,55,8.80
2010,05,21,08,56,8.80
2010,05,21,08,57,8.90
2010,05,21,08,58,8.90
2010,05,21,08,59,8.90
2010,05,21,09,00,9.00
2010,05,21,09,01,9.00
2010,05,21,09,02,9.10
2010,05,21,09,03,9.10
2010,05,21,09,04,9.10
2010,05,21,09,05,9.10
2010,05,21,09,06,9.10
2010,05,21,09,07,9.10
2010,05,21,09,08,9.10
2010,05,21,09,09,9.10
2010,05,21,09,10,9.10
2010,05,21,09,11,9.10
2010,05,21,09,12,9.10
2010,05,21,09,13,9.10
2010,05,21,09,14,9.10
2010,05,21,09,15,9.10
2010,05,21,09,16,9.10
2010,05,21,09,17,9.20
2010,05,21,09,18,9.20
2010,05,21,09,19,9.20
2010,05,21,09,20,9.20
2010,05,21,09,21,9.20
2010,05,21,09,22,9.20
2010,05,21,09,23,9.20
2010,05,21,09,24,9.20
2010,05,21,09,25,9.20
2010,05,21,09,26,9.20
2010,05,21,09,27,9.20
2010,05,21,09,28,9.20
2010,05,21,09,29,9.20
2010,05,21,09,30,9.10
2010,05,21,09,31,9.10
2010,05,21,09,32,9.10
2010,05,21,09,33,9.10
2010,05,21,09,34,9.10
2010,05,21,09,35,9.20
2010,05,21,09,36,9.20
2010,05,21,09,37,9.30
2010,05,21,09,38,9.40
2010,05,21,09,39,9.40
2010,05,21,09,40,9.40
2010,05,21,09,41,9.40
2010,05,21,09,42,9.40
2010,05,21,09,43,9.40
2010,05,21,09,44,9.40
2010,05,21,09,45,9.40
2010,05,21,09,46,9.40
2010,05,21,09,47,9.30
2010,05,21,09,48,9.40
2010,05,21,09,49,9.30
2010,05,21,09,50,9.40
2010,05,21,09,51,9.50
2010,05,21,09,52,9.60
2010,05,21,09,53,9.60
2010,05,21,09,54,9.70
2010,05,21,09,55,9.80
2010,05,21,09,56,9.90
2010,05,21,09,57,10.00
2010,05,21,09,58,10.10
2010,05,21,09,59,10.20
2010,05,21,10,00,10.20
2010,05,21,10,01,10.20
2010,05,21,10,02,10.20
2010,05,21,10,03,10.20
2010,05,21,10,04,10.20
2010,05,21,10,05,10.20
2010,05,21,10,06,10.20
2010,05,21,10,07,10.20
2010,05,21,10,08,10.20
2010,05,21,10,09,10.20
2010,05,21,10,10,10.20
2010,05,21,10,11,10.20
2010,05,21,10,12,10.20
2010,05,21,10,13,10.20
2010,05,21,10,14,10.10
2010,05,21,10,15,10.10
2010,05,21,10,16,10.10
2010,05,21,10,17,10.10
2010,05,21,10,18,10.10
2010,05,21,10,19,10.10
2010,05,21,10,20,10.10
2010,05,21,10,21,10.10
2010,05,21,10,22,10.10
2010,05,21,10,23,10.10
2010,05,21,10,24,10.20
2010,05,21,10,25,10.20
2010,05,21,10,26,10.30
2010,05,21,10,27,10.30
2010,05,21,10,28,10.30
2010,05,21,10,29,10.40
2010,05,21,10,30,10.40
2010,05,21,10,31,10.40
2010,05,21,10,32,10.50
2010,05,21,10,33,10.50
2010,05,21,10,34,10.60
2010,05,21,10,35,10.60
2010,05,21,10,36,10.70
2010,05,21,10,37,10.80
2010,05,21,10,38,10.80
2010,05,21,10,39,10.80
2010,05,21,10,40,10.80
2010,05,21,10,41,10.80
2010,05,21,10,42,10.80
2010,05,21,10,43,10.80
2010,05,21,10,44,10.80
2010,05,21,10,45,10.80
2010,05,21,10,46,10.80
2010,05,21,10,47,10.80
2010,05,21,10,48,10.80
2010,05,21,10,49,10.70
2010,05,21,10,50,10.70
2010,05,21,10,51,10.70
2010,05,21,10,52,10.70
2010,05,21,10,53,10.80
2010,05,21,10,54,10.80
2010,05,21,10,55,10.80
2010,05,21,10,56,10.80
2010,05,21,10,57,10.80
2010,05,21,10,58,10.80
2010,05,21,10,59,10.80
2010,05,21,11,00,10.80
2010,05,21,11,01,10.80
2010,05,21,11,02,10.80
2010,05,21,11,03,10.80
2010,05,21,11,04,10.90
2010,05,21,11,05,10.90
2010,05,21,11,06,10.80
2010,05,21,11,07,10.80
2010,05,21,11,08,10.80
2010,05,21,11,09,10.70
2010,05,21,11,10,10.70
2010,05,21,11,11,10.80
2010,05,21,11,12,10.80
2010,05,21,11,13,10.80
2010,05,21,11,14,10.80
2010,05,21,11,15,10.80
2010,05,21,11,16,10.90
2010,05,21,11,17,10.90
2010,05,21,11,18,11.00
2010,05,21,11,19,11.10
2010,05,21,11,20,11.30
2010,05,21,11,21,11.40
2010,05,21,11,22,11.60
2010,05,21,11,23,11.70
2010,05,21,11,24,11.80
2010,05,21,11,25,11.90
2010,05,21,11,26,12.00
2010,05,21,11,27,12.00
2010,05,21,11,28,12.00
2010,05,21,11,29,12.00
2010,05,21,11,30,11.90
2010,05,21,11,31,11.90
2010,05,21,11,32,11.90
2010,05,21,11,33,12.00
2010,05,21,11,34,12.10
2010,05,21,11,35,12.10
2010,05,21,11,36,12.10
2010,05,21,11,37,12.10
2010,05,21,11,38,12.10
2010,05,21,11,39,12.10
2010,05,21,11,40,12.00
2010,05,21,11,41,12.00
2010,05,21,11,42,12.00
2010,05,21,11,43,12.00
2010,05,21,11,44,12.00
2010,05,21,11,45,11.90
2010,05,21,11,46,11.90
2010,05,21,11,47,12.00
2010,05,21,11,48,12.00
2010,05,21,11,49,11.90
2010,05,21,11,50,12.00
2010,05,21,11,51,12.00
2010,05,21,11,52,11.90
2010,05,21,11,53,11.90
2010,05,21,11,54,11.90
2010,05,21,11,55,11.90
2010,05,21,11,56,12.00
2010,05,21,11,57,11.90
2010,05,21,11,58,11.90
2010,05,21,11,59,11.80
2010,05,21,12,00,11.80
2010,05,21,12,01,11.90
2010,05,21,12,02,11.90
2010,05,21,12,03,12.00
2010,05,21,12,04,12.00
2010,05,21,12,05,12.10
2010,05,21,12,06,12.10
2010,05,21,12,07,12.10
2010,05,21,12,08,12.20
2010,05,21,12,09,12.20
2010,05,21,12,10,12.30
2010,05,21,12,11,12.40
2010,05,21,12,12,12.40
2010,05,21,12,13,12.50
2010,05,21,12,14,12.60
2010,05,21,12,15,12.60
2010,05,21,12,16,12.60
2010,05,21,12,17,12.50
2010,05,21,12,18,12.50
2010,05,21,12,19,12.50
2010,05,21,12,20,12.50
2010,05,21,12,21,12.60
2010,05,21,12,22,12.60
2010,05,21,12,23,12.60
2010,05,21,12,24,12.50
2010,05,21,12,25,12.50
2010,05,21,12,26,12.40
2010,05,21,12,27,12.40
2010,05,21,12,28,12.40
2010,05,21,12,29,12.40
2010,05,21,12,30,12.40
2010,05,21,12,31,12.30
2010,05,21,12,32,12.30
2010,05,21,12,33,12.20
2010,05,21,12,34,12.20
2010,05,21,12,35,12.30
2010,05,21,12,36,12.30
2010,05,21,12,37,12.40
2010,05,21,12,38,12.50
2010,05,21,12,39,12.60
2010,05,21,12,40,12.70
2010,05,21,12,41,12.80
2010,05,21,12,42,12.80
2010,05,21,12,43,12.70
2010,05,21,12,44,12.70
2010,05,21,12,45,12.60
2010,05,21,12,46,12.60
2010,05,21,12,47,12.50
2010,05,21,12,48,12.50
2010,05,21,12,49,12.40
2010,05,21,12,50,12.50
2010,05,21,12,51,12.50
2010,05,21,12,52,12.60
2010,05,21,12,53,12.50
2010,05,21,12,54,12.20
2010,05,21,12,55,12.10
2010,05,21,12,56,12.10
2010,05,21,12,57,12.00
2010,05,21,12,58,12.00
2010,05,21,12,59,12.00
2010,05,21,13,00,11.90
2010,05,21,13,01,11.90
2010,05,21,13,02,11.90
2010,05,21,13,03,11.80
2010,05,21,13,04,11.80
2010,05,21,13,05,11.70
2010,05,21,13,06,11.60
2010,05,21,13,07,11.50
2010,05,21,13,08,11.50
2010,05,21,13,09,11.40
2010,05,21,13,10,11.30
2010,05,21,13,11,11.20
2010,05,21,13,12,11.20
2010,05,21,13,13,11.10
2010,05,21,13,14,11.10
2010,05,21,13,15,11.00
2010,05,21,13,16,11.00
2010,05,21,13,17,10.90
2010,05,21,13,18,10.80
2010,05,21,13,19,10.80
2010,05,21,13,20,10.80
2010,05,21,13,21,10.80
2010,05,21,13,22,10.70
2010,05,21,13,23,10.70
2010,05,21,13,24,10.70
2010,05,21,13,25,10.60
2010,05,21,13,26,10.60
2010,05,21,13,27,10.60
2010,05,21,13,28,10.60
2010,05,21,13,29,10.60
2010,05,21,13,30,10.60
2010,05,21,13,31,10.60
2010,05,21,13,32,10.50
2010,05,21,13,33,10.50
2010,05,21,13,34,10.40
2010,05,21,13,35,10.40
2010,05,21,13,36,10.40
2010,05,21,13,37,10.40
2010,05,21,13,38,10.40
2010,05,21,13,39,10.40
2010,05,21,13,40,10.40
2010,05,21,13,41,10.50
2010,05,21,13,42,10.50
2010,05,21,13,43,10.50
2010,05,21,13,44,10.60
2010,05,21,13,45,10.60
2010,05,21,13,46,10.60
2010,05,21,13,47,10.60
2010,05,21,13,48,10.60
2010,05,21,13,49,10.60
2010,05,21,13,50,10.60
2010,05,21,13,51,10.60
2010,05,21,13,52,10.60
2010,05,21,13,53,10.70
2010,05,21,13,54,10.70
2010,05,21,13,55,10.70
2010,05,21,13,56,10.70
2010,05,21,13,57,10.80
2010,05,21,13,58,10.80
2010,05,21,13,59,10.90
2010,05,21,14,00,11.00
2010,05,21,14,01,11.00
2010,05,21,14,02,11.10
2010,05,21,14,03,11.20
2010,05,21,14,04,11.30
2010,05,21,14,05,11.40
2010,05,21,14,06,11.50
2010,05,21,14,07,11.60
2010,05,21,14,08,11.50
2010,05,21,14,09,11.50
2010,05,21,14,10,11.40
2010,05,21,14,11,11.40
2010,05,21,14,12,11.40
2010,05,21,14,13,11.40
2010,05,21,14,14,11.30
2010,05,21,14,15,11.30
2010,05,21,14,16,11.30
2010,05,21,14,17,11.30
2010,05,21,14,18,11.30
2010,05,21,14,19,11.20
2010,05,21,14,20,11.20
2010,05,21,14,21,11.20
2010,05,21,14,22,11.20
2010,05,21,14,23,11.20
2010,05,21,14,24,11.20
2010,05,21,14,25,11.20
2010,05,21,14,26,11.10
2010,05,21,14,27,11.10
2010,05,21,14,28,11.10
2010,05,21,14,29,11.10
2010,05,21,14,30,11.10
2010,05,21,14,31,11.10
2010,05,21,14,32,11.10
2010,05,21,14,33,11.10
2010,05,21,14,34,11.10
2010,05,21,14,35,11.10
2010,05,21,14,36,11.10
2010,05,21,14,37,11.10
2010,05,21,14,38,11.10
2010,05,21,14,39,11.10
2010,05,21,14,40,11.10
2010,05,21,14,41,11.10
2010,05,21,14,42,11.00
2010,05,21,14,43,11.00
2010,05,21,14,44,11.00
2010,05,21,14,45,11.10
2010,05,21,14,46,11.10
2010,05,21,14,47,11.20
2010,05,21,14,48,11.20
2010,05,21,14,49,11.30
2010,05,21,14,50,11.40
2010,05,21,14,51,11.50
2010,05,21,14,52,11.50
2010,05,21,14,53,11.60
2010,05,21,14,54,11.60
2010,05,21,14,55,11.60
2010,05,21,14,56,11.70
2010,05,21,14,57,11.70
2010,05,21,14,58,11.80
2010,05,21,14,59,11.80
2010,05,21,15,00,11.80
2010,05,21,15,01,11.90
2010,05,21,15,02,12.00
2010,05,21,15,03,12.10
2010,05,21,15,04,12.10
2010,05,21,15,05,12.20
2010,05,21,15,06,12.20
2010,05,21,15,07,12.20
2010,05,21,15,08,12.20
2010,05,21,15,09,12.30
2010,05,21,15,10,12.20
2010,05,21,15,11,12.20
2010,05,21,15,12,12.30
2010,05,21,15,13,12.30
2010,05,21,15,14,12.40
2010,05,21,15,15,12.40
2010,05,21,15,16,12.30
2010,05,21,15,17,12.30
2010,05,21,15,18,12.40
2010,05,21,15,19,12.40
2010,05,21,15,20,12.40
2010,05,21,15,21,12.40
2010,05,21,15,22,12.40
2010,05,21,15,23,12.40
2010,05,21,15,24,12.40
2010,05,21,15,25,12.40
2010,05,21,15,26,12.40
2010,05,21,15,27,12.30
2010,05,21,15,28,12.30
2010,05,21,15,29,12.30
2010,05,21,15,30,12.20
2010,05,21,15,31,12.20
2010,05,21,15,32,12.20
2010,05,21,15,33,12.20
2010,05,21,15,34,12.20
2010,05,21,15,35,12.10
2010,05,21,15,36,12.10
2010,05,21,15,37,12.10
2010,05,21,15,38,12.10
2010,05,21,15,39,12.10
2010,05,21,15,40,12.20
2010,05,21,15,41,12.20
2010,05,21,15,42,12.30
2010,05,21,15,43,12.40
2010,05,21,15,44,12.50
2010,05,21,15,45,12.60
2010,05,21,15,46,12.70
2010,05,21,15,47,12.80
2010,05,21,15,48,12.80
2010,05,21,15,49,12.90
2010,05,21,15,50,12.90
2010,05,21,15,51,12.90
2010,05,21,15,52,13.00
2010,05,21,15,53,13.00
2010,05,21,15,54,13.00
2010,05,21,15,55,13.10
2010,05,21,15,56,13.10
2010,05,21,15,57,13.10
2010,05,21,15,58,13.20
2010,05,21,15,59,13.30
2010,05,21,16,00,13.30
2010,05,21,16,01,13.30
2010,05,21,16,02,13.30
2010,05,21,16,03,13.30
2010,05,21,16,04,13.40
2010,05,21,16,05,13.50
2010,05,21,16,06,13.60
2010,05,21,16,07,13.70
2010,05,21,16,08,13.80
2010,05,21,16,09,13.90
2010,05,21,16,10,13.90
2010,05,21,16,11,13.90
2010,05,21,16,12,13.90
2010,05,21,16,13,14.00
2010,05,21,16,14,13.90
2010,05,21,16,15,13.90
2010,05,21,16,16,13.90
2010,05,21,16,17,14.00
2010,05,21,16,18,14.00
2010,05,21,16,19,13.90
2010,05,21,16,20,13.90
2010,05,21,16,21,13.80
2010,05,21,16,22,13.80
2010,05,21,16,23,13.80
2010,05,21,16,24,13.80
2010,05,21,16,25,13.80
2010,05,21,16,26,13.80
2010,05,21,16,27,13.80
2010,05,21,16,28,13.80
2010,05,21,16,29,13.80
2010,05,21,16,30,13.70
2010,05,21,16,31,13.70
2010,05,21,16,32,13.70
2010,05,21,16,33,13.70
2010,05,21,16,34,13.60
2010,05,21,16,35,13.60
2010,05,21,16,36,13.50
2010,05,21,16,37,13.50
2010,05,21,16,38,13.40
2010,05,21,16,39,13.30
2010,05,21,16,40,13.30
2010,05,21,16,41,13.30
2010,05,21,16,42,13.30
2010,05,21,16,43,13.30
2010,05,21,16,44,13.30
2010,05,21,16,45,13.30
2010,05,21,16,46,13.40
2010,05,21,16,47,13.40
2010,05,21,16,48,13.40
2010,05,21,16,49,13.40
2010,05,21,16,50,13.40
2010,05,21,16,51,13.40
2010,05,21,16,52,13.30
2010,05,21,16,53,13.20
2010,05,21,16,54,13.10
2010,05,21,16,55,12.90
2010,05,21,16,56,12.80
2010,05,21,16,57,12.70
2010,05,21,16,58,12.40
2010,05,21,16,59,12.30
2010,05,21,17,00,12.20
2010,05,21,17,01,12.20
2010,05,21,17,02,12.20
2010,05,21,17,03,12.10
2010,05,21,17,04,12.10
2010,05,21,17,05,12.10
2010,05,21,17,06,12.10
2010,05,21,17,07,12.20
2010,05,21,17,08,12.20
2010,05,21,17,09,12.30
2010,05,21,17,10,12.30
2010,05,21,17,11,12.30
2010,05,21,17,12,12.40
2010,05,21,17,13,12.40
2010,05,21,17,14,12.50
2010,05,21,17,15,12.50
2010,05,21,17,16,12.60
2010,05,21,17,17,12.60
2010,05,21,17,18,12.50
2010,05,21,17,19,12.50
2010,05,21,17,20,12.50
2010,05,21,17,21,12.50
2010,05,21,17,22,12.50
2010,05,21,17,23,12.50
2010,05,21,17,24,12.40
2010,05,21,17,25,12.40
2010,05,21,17,26,12.40
2010,05,21,17,27,12.40
2010,05,21,17,28,12.40
2010,05,21,17,29,12.50
2010,05,21,17,30,12.50
2010,05,21,17,31,12.60
2010,05,21,17,32,12.70
2010,05,21,17,33,12.80
2010,05,21,17,34,12.80
2010,05,21,17,35,13.00
2010,05,21,17,36,13.10
2010,05,21,17,37,13.10
2010,05,21,17,38,13.20
2010,05,21,17,39,13.20
2010,05,21,17,40,13.20
2010,05,21,17,41,13.20
2010,05,21,17,42,13.20
2010,05,21,17,43,13.20
2010,05,21,17,44,13.20
2010,05,21,17,45,13.10
2010,05,21,17,46,13.10
2010,05,21,17,47,13.10
2010,05,21,17,48,13.10
2010,05,21,17,49,13.10